Location: Newark
(53.3469°N, 7.1606°E)
Time: 05:04:22
(UTC+00:00)

N. Korean satellite - Pass Details

Date: 13 November 2019
Orbit: 456 x 506 km, 97.2° (Epoch: 07 December)

Event Time Altitude Azimuth Distance (km) Brightness Sun altitude
Rises 05:30:28 0° 14° (NNE) 2,626 10.3 -12.1°
Reaches altitude 10° 05:32:35 10° 17° (NNE) 1,736 9.4 -11.8°
Maximum altitude 05:36:20 74° 103° (ESE) 534 6.9 -11.2°
Drops below altitude 10° 05:40:02 10° 188° (S) 1,715 9.4 -10.7°
Sets 05:42:06 0° 191° (S) 2,590 10.3 -10.4°
